[[{"header":{"parameterUnit":"m.s-1","parameterCategory":1,"la1":30.2992,"la2":30.254,"lo1":-89.0895,"lo2":-89.0443,"dy":0.0025,"dx":0.0025,"nx":19,"ny":19,"refTime":"2026-05-13T09:00:00:Z","depth":0,"parameterNumber":2,"parameterNumberName":"U-component_of_WINDS"},"data":[0,0,0,1.2113,1.2117,1.2304,1.2305,1.2541,1.2543,0,0,0,0,0,0,0,0,0,0,0,1.2051,1.2053,1.2112,1.2117,1.2304,1.2305,1.2541,1.2543,0,0,0,0,0,0,0,0,0,0,0,1.2051,1.2052,1.2054,1.2118,1.2304,1.2305,1.254,1.2401,0,0,0,0,0,0,0,0,0,0,1.222,1.2157,1.2052,1.2054,1.2119,1.2303,1.2305,1.2395,1.241,1.2454,0,1.2488,0,1.2519,1.2558,1.2559,0,0,0,1.2123,1.2144,1.2199,1.2054,1.212,1.2303,1.2221,1.2403,1.242,1.2474,1.2491,1.25,1.2523,1.256,1.2561,1.2788,1.2789,0,0,1.2112,1.2083,1.2187,1.221,1.2176,1.2215,1.2227,1.2414,1.2432,1.2492,1.2506,1.2527,1.2561,1.2563,1.2787,1.2788,0,0,0,1.2079,1.2075,1.2126,1.22,1.2234,1.222,1.2234,1.2424,1.2443,1.2508,1.2529,1.2563,1.2566,1.2786,1.2787,1.2798,0,0,0,1.2073,1.2056,1.2122,1.2106,1.223,1.233,1.2239,1.243,1.2452,1.2528,1.2563,1.2568,1.2785,1.2787,1.2796,1.2809,0,0,0,1.2041,1.2052,1.2077,1.2104,1.2182,1.2328,1.2358,1.2435,1.2464,1.2559,1.2568,1.2785,1.2787,1.2794,1.2806,1.2861,0,0,0,1.2,1.2084,1.2076,1.2179,1.2181,1.2331,1.2357,1.2471,1.2554,1.2564,1.2785,1.2787,1.2793,1.2804,1.2858,1.2903,1.2917,0,0,1.209,1.2094,1.2157,1.2155,1.2299,1.2305,1.2453,1.2558,1.2596,1.2723,1.2729,1.2796,1.2805,1.286,1.3009,1.302,0,0,0,1.2176,1.2221,1.2265,1.2341,1.2421,1.2493,1.2577,1.2617,1.2726,1.2653,1.2831,1.2838,1.2871,1.2894,1.2904,1.2936,1.2796,1.2796,1.2795,1.2263,1.2304,1.2411,1.2475,1.2549,1.2636,1.2701,1.2769,1.2791,1.2833,1.2871,1.2956,1.2981,1.2989,1.3021,1.2896,1.2896,1.2897,1.2897,1.24,1.2471,1.2496,1.261,1.2654,1.2752,1.284,1.2852,1.2952,1.293,1.2962,1.2935,1.3,1.3031,1.2898,1.2898,1.2897,1.2897,1.2897,1.2463,1.2504,1.2548,1.2663,1.2747,1.2811,1.2905,1.2943,1.298,1.3011,1.3057,1.3057,1.3064,1.303,1.303,1.303,1.303,1.3031,1.3031,1.2511,1.2561,1.2633,1.2725,1.278,1.2857,1.2945,1.3002,1.3074,1.3095,1.3095,1.3115,1.2997,1.2968,1.3036,1.3035,1.3034,1.3034,1.3033,1.2638,1.2615,1.2727,1.2781,1.2894,1.2977,1.3023,1.3135,1.3187,1.3233,1.3246,1.3152,1.316,1.3152,1.3129,1.3234,1.3234,1.3234,1.3234,1.2693,1.2699,1.2823,1.2907,1.2995,1.3048,1.3178,1.3249,1.332,1.3356,1.3346,1.3317,1.3307,1.3322,1.3311,1.3289,1.3433,1.3433,1.3434,1.2774,1.2791,1.2892,1.2957,1.3048,1.3127,1.3252,1.3352,1.3428,1.3443,1.3386,1.3377,1.3331,1.3313,1.3328,1.331,1.3271,0,0]},{"header":{"parameterUnit":"m.s-1","parameterCategory":1,"la1":30.2992,"la2":30.254,"lo1":-89.0895,"lo2":-89.0443,"dy":0.0025,"dx":0.0025,"nx":19,"ny":19,"refTime":"2026-05-13T09:00:00:Z","depth":0,"parameterNumber":3,"parameterNumberName":"V-component_of_WINDS"},"data":[0,0,0,-0.9854,-0.9852,-0.9772,-0.9771,-0.9651,-0.965,0,0,0,0,0,0,0,0,0,0,0,-0.987,-0.9869,-0.9854,-0.9852,-0.9772,-0.9771,-0.9651,-0.965,0,0,0,0,0,0,0,0,0,0,0,-0.987,-0.9869,-0.9868,-0.9851,-0.9772,-0.9771,-0.9652,-0.9718,0,0,0,0,0,0,0,0,0,0,-0.9798,-0.9807,-0.987,-0.9868,-0.9851,-0.9772,-0.9771,-0.9721,-0.9713,-0.9681,0,-0.9653,0,-0.965,-0.9641,-0.9641,0,0,0,-0.9856,-0.9813,-0.9799,-0.9868,-0.985,-0.9772,-0.9809,-0.9717,-0.9708,-0.9671,-0.9651,-0.9647,-0.9648,-0.964,-0.964,-0.9441,-0.944,0,0,-0.9861,-0.9851,-0.9804,-0.9793,-0.9808,-0.9812,-0.9807,-0.9712,-0.9689,-0.9651,-0.9645,-0.9646,-0.9639,-0.9638,-0.9442,-0.9441,0,0,0,-0.987,-0.9854,-0.9842,-0.9797,-0.9784,-0.9809,-0.9803,-0.9693,-0.969,-0.9644,-0.9644,-0.9639,-0.9637,-0.9444,-0.9442,-0.9374,0,0,0,-0.9873,-0.986,-0.9844,-0.9837,-0.9786,-0.9738,-0.9786,-0.9697,-0.9687,-0.9645,-0.9639,-0.9636,-0.9445,-0.9443,-0.9379,-0.9343,0,0,0,-0.9878,-0.986,-0.9846,-0.9836,-0.9802,-0.974,-0.9732,-0.9695,-0.9687,-0.9641,-0.9635,-0.9446,-0.9443,-0.9383,-0.935,-0.9286,0,0,0,-0.9879,-0.9788,-0.9845,-0.9743,-0.9802,-0.9701,-0.9733,-0.9657,-0.961,-0.9638,-0.9445,-0.9442,-0.9385,-0.9354,-0.929,-0.9228,-0.9202,0,0,-0.9758,-0.9773,-0.9714,-0.9763,-0.9649,-0.9714,-0.9588,-0.9554,-0.9557,-0.9479,-0.9474,-0.9378,-0.935,-0.9287,-0.9066,-0.9046,0,0,0,-0.9672,-0.9629,-0.9601,-0.9557,-0.9529,-0.9501,-0.9487,-0.9473,-0.9408,-0.9516,-0.9339,-0.9323,-0.9286,-0.9256,-0.9239,-0.9206,-0.9429,-0.9429,-0.943,-0.9486,-0.9497,-0.9398,-0.9398,-0.9354,-0.934,-0.9304,-0.9283,-0.9307,-0.9265,-0.924,-0.9106,-0.9071,-0.9058,-0.9024,-0.9211,-0.9211,-0.9211,-0.9211,-0.9307,-0.9246,-0.928,-0.9196,-0.9207,-0.9136,-0.9117,-0.9136,-0.9069,-0.9126,-0.9093,-0.9151,-0.9035,-0.9005,-0.9206,-0.9207,-0.9207,-0.9208,-0.9208,-0.9184,-0.9156,-0.9143,-0.9078,-0.9026,-0.9029,-0.8963,-0.8975,-0.8986,-0.8955,-0.8928,-0.8929,-0.8929,-0.8942,-0.8942,-0.8941,-0.8941,-0.894,-0.894,-0.906,-0.9047,-0.8991,-0.8953,-0.8924,-0.8888,-0.8872,-0.8843,-0.8814,-0.8828,-0.8828,-0.8852,-0.9024,-0.9064,-0.8933,-0.8934,-0.8935,-0.8936,-0.8936,-0.887,-0.8914,-0.8827,-0.8799,-0.8753,-0.8699,-0.8716,-0.8656,-0.8635,-0.86,-0.8633,-0.8758,-0.8773,-0.8787,-0.882,-0.8634,-0.8634,-0.8633,-0.8633,-0.8763,-0.8773,-0.8685,-0.8638,-0.8593,-0.86,-0.8496,-0.8482,-0.8473,-0.8459,-0.8489,-0.8535,-0.8549,-0.8556,-0.8575,-0.8606,-0.8368,-0.8368,-0.8368,-0.8644,-0.865,-0.8561,-0.8556,-0.8521,-0.8489,-0.8391,-0.8333,-0.8333,-0.8357,-0.8448,-0.8459,-0.8534,-0.8559,-0.8583,-0.8612,-0.867,0,0]}]]